Location: Hancock Field Station
(44.9202°N, 120.4259°W)
Time: 00:54:06
(UTC-07:00)

Nadezhda 4 Rocket - Visible Passes

Search period start: 03 July 2015 00:00
Search period end: 13 July 2015 00:00
Orbit: 949 x 993 km, 82.9° (Epoch: 02 July)

Date Brightness Start Highest point End Pass type
(mag) Time Alt. Az. Time Alt. Az. Time Alt. Az.
03 Jul 4.1 00:13:04 10° N 00:19:10 62° ENE 00:21:34 37° SE visible
03 Jul 5.5 01:59:26 10° NW 02:04:00 21° W 02:06:08 18° WSW visible
03 Jul 5.8 22:53:13 10° NNE 22:57:11 18° ENE 23:00:57 11° ESE visible
04 Jul 3.9 00:37:10 10° N 00:43:20 78° W 00:45:31 43° S visible
04 Jul 6.1 02:25:29 10° WNW 02:27:44 12° WNW 02:29:36 10° W visible
04 Jul 5.1 23:16:31 10° N 23:21:49 30° ENE 23:24:55 20° ESE visible
05 Jul 4.6 01:01:30 10° NNW 01:07:21 45° W 01:09:29 33° SW visible
05 Jul 4.4 23:40:15 10° N 23:46:14 51° ENE 23:48:53 32° SE visible
06 Jul 5.3 01:26:11 10° NNW 01:31:16 27° W 01:33:27 21° WSW visible
06 Jul 5.9 22:20:54 10° NNE 22:24:04 15° ENE 22:27:32 10° E visible
07 Jul 3.9 00:04:16 10° N 00:10:28 86° E 00:12:52 41° SSE visible
07 Jul 5.9 01:51:32 10° NW 01:55:02 15° W 01:57:26 12° WSW visible
07 Jul 5.4 22:43:53 10° NNE 22:48:47 25° ENE 22:52:17 16° ESE visible
08 Jul 4.3 00:28:30 10° NNW 00:34:33 57° W 00:36:52 36° SSW visible
08 Jul 4.7 23:07:29 10° N 23:13:17 41° ENE 23:16:18 26° SE visible
09 Jul 5.1 00:53:02 10° NNW 00:58:30 33° W 01:00:52 25° SW visible
09 Jul 6.0 21:48:57 10° NE 21:50:54 12° ENE 21:53:13 10° E visible
09 Jul 4.0 23:31:23 10° N 23:37:35 70° E 23:40:19 35° SSE visible
10 Jul 5.8 01:18:02 10° NW 01:22:19 19° W 01:24:53 15° WSW visible
10 Jul 5.6 22:11:20 10° NNE 22:15:42 20° ENE 22:19:46 12° ESE visible
10 Jul 4.1 23:55:33 10° NNW 00:01:43 70° W 00:04:21 36° SSW visible
11 Jul 6.3 01:45:01 10° WNW 01:46:02 10° WNW 01:46:35 10° W visible
11 Jul 4.9 22:34:45 10° N 22:40:17 34° ENE 22:43:49 20° ESE visible
12 Jul 4.8 00:19:56 10° NNW 00:25:43 41° W 00:28:23 27° SW visible
12 Jul 4.2 22:58:34 10° N 23:04:40 57° ENE 23:07:52 29° SE visible
